Hourly Weather Rudka

Today, 1 August, Sunday

Time Temperature Precipitation Wind Pressure Humidity
00:00 +17°C° 0 mm 2 mps 740 mmHg 95%
01:00 +17°C° 0 mm 2 mps 740 mmHg 95%
02:00 +17°C° 0 mm 2 mps 740 mmHg 94%
03:00 +17°C° 0 mm 2 mps 739 mmHg 94%
04:00 +17°C° 0 mm 2 mps 739 mmHg 93%
05:00 +17°C° 0 mm 2 mps 739 mmHg 93%
06:00 +18°C° 0 mm 2 mps 739 mmHg 89%
07:00 +20°C° 0 mm 2 mps 740 mmHg 85%
08:00 +22°C° 0 mm 1 mps 740 mmHg 81%
09:00 +24°C° 0 mm 2 mps 740 mmHg 75%
10:00 +26°C° 0 mm 2 mps 740 mmHg 68%
11:00 +27°C° 0 mm 2 mps 740 mmHg 62%
12:00 +28°C° 0 mm 2 mps 740 mmHg 59%
13:00 +29°C° 0 mm 2 mps 739 mmHg 55%
14:00 +29°C° 0 mm 3 mps 739 mmHg 51%
15:00 +29°C° 0 mm 3 mps 738 mmHg 53%
16:00 +29°C° 0 mm 4 mps 738 mmHg 55%
17:00 +29°C° 0 mm 4 mps 737 mmHg 57%
18:00 +28°C° 0 mm 4 mps 736 mmHg 62%
19:00 +26°C° 0 mm 4 mps 736 mmHg 67%
20:00 +25°C° 0 mm 4 mps 736 mmHg 71%
21:00 +23°C° 0.3 mm 4 mps 736 mmHg 75%
22:00 +21°C° 0.3 mm 3 mps 736 mmHg 79%
23:00 +20°C° 0.3 mm 3 mps 736 mmHg 82%

Tomorrow, 2 August, Monday

Time Temperature Precipitation Wind Pressure Humidity
00:00 +20°C° 0 mm 2 mps 735 mmHg 85%
01:00 +19°C° 0 mm 2 mps 735 mmHg 87%
02:00 +19°C° 0 mm 2 mps 735 mmHg 89%
03:00 +18°C° 0 mm 3 mps 735 mmHg 91%
04:00 +18°C° 0 mm 3 mps 735 mmHg 93%
05:00 +18°C° 0 mm 4 mps 735 mmHg 95%
06:00 +18°C° 0 mm 4 mps 736 mmHg 92%
07:00 +17°C° 0 mm 5 mps 736 mmHg 90%
08:00 +19°C° 0 mm 5 mps 737 mmHg 87%
09:00 +17°C° 0 mm 5 mps 737 mmHg 86%
10:00 +17°C° 0 mm 5 mps 738 mmHg 85%
11:00 +17°C° 0 mm 5 mps 739 mmHg 84%
12:00 +17°C° 0 mm 6 mps 739 mmHg 81%
13:00 +17°C° 0 mm 6 mps 740 mmHg 79%
14:00 +19°C° 0 mm 6 mps 740 mmHg 77%
15:00 +19°C° 0 mm 5 mps 740 mmHg 76%
16:00 +19°C° 0 mm 5 mps 741 mmHg 75%
17:00 +19°C° 0 mm 4 mps 741 mmHg 74%
18:00 +18°C° 0 mm 4 mps 741 mmHg 77%
19:00 +17°C° 0 mm 3 mps 741 mmHg 81%
20:00 +17°C° 0 mm 3 mps 741 mmHg 85%
21:00 +16°C° 0 mm 3 mps 741 mmHg 88%
22:00 +16°C° 0 mm 3 mps 742 mmHg 91%
23:00 +14°C° 0 mm 3 mps 742 mmHg 94%

Day after tomorrow, 3 August, Tuesday

Time Temperature Precipitation Wind Pressure Humidity
00:00 +14°C° 0 mm 3 mps 742 mmHg 94%
01:00 +14°C° 0 mm 3 mps 742 mmHg 94%
02:00 +13°C° 0 mm 3 mps 743 mmHg 94%
03:00 +13°C° 0 mm 3 mps 743 mmHg 94%
04:00 +13°C° 0 mm 3 mps 743 mmHg 94%
05:00 +14°C° 0 mm 2 mps 743 mmHg 95%
06:00 +14°C° 0 mm 3 mps 743 mmHg 88%
07:00 +17°C° 0 mm 3 mps 744 mmHg 82%
08:00 +19°C° 0 mm 3 mps 744 mmHg 75%
09:00 +20°C° 0 mm 4 mps 744 mmHg 69%
10:00 +21°C° 0 mm 4 mps 744 mmHg 63%
11:00 +22°C° 0 mm 4 mps 744 mmHg 57%
12:00 +22°C° 0.1 mm 4 mps 744 mmHg 56%
13:00 +24°C° 0.1 mm 3 mps 744 mmHg 55%
14:00 +24°C° 0.1 mm 3 mps 744 mmHg 54%
15:00 +24°C° 0 mm 3 mps 744 mmHg 55%
16:00 +24°C° 0 mm 2 mps 744 mmHg 55%
17:00 +24°C° 0 mm 1 mps 743 mmHg 56%
18:00 +23°C° 0 mm 1 mps 744 mmHg 60%
19:00 +21°C° 0 mm 1 mps 744 mmHg 65%
20:00 +20°C° 0 mm 1 mps 744 mmHg 69%
21:00 +19°C° 0 mm 1 mps 744 mmHg 71%
22:00 +17°C° 0 mm 2 mps 744 mmHg 73%
23:00 +17°C° 0 mm 2 mps 744 mmHg 75%

4 August, Wednesday

Time Temperature Precipitation Wind Pressure Humidity
00:00 +16°C° 0 mm 2 mps 744 mmHg 78%
01:00 +16°C° 0 mm 2 mps 744 mmHg 80%
02:00 +15°C° 0 mm 2 mps 744 mmHg 83%
03:00 +15°C° 0 mm 2 mps 744 mmHg 85%
04:00 +15°C° 0 mm 2 mps 743 mmHg 87%
05:00 +15°C° 0 mm 2 mps 743 mmHg 89%
06:00 +16°C° 0.2 mm 3 mps 743 mmHg 86%
07:00 +17°C° 0.2 mm 3 mps 743 mmHg 83%
08:00 +19°C° 0.2 mm 3 mps 743 mmHg 81%
09:00 +19°C° 0.2 mm 2 mps 743 mmHg 80%
10:00 +20°C° 0.2 mm 2 mps 743 mmHg 79%
11:00 +21°C° 0.2 mm 1 mps 743 mmHg 78%
12:00 +22°C° 0.2 mm 1 mps 743 mmHg 77%
13:00 +23°C° 0.2 mm 1 mps 743 mmHg 75%
14:00 +23°C° 0.2 mm 1 mps 743 mmHg 74%
15:00 +24°C° 0.3 mm 1 mps 742 mmHg 73%
16:00 +24°C° 0.3 mm 1 mps 742 mmHg 72%
17:00 +24°C° 0.3 mm 2 mps 742 mmHg 71%
18:00 +23°C° 0.6 mm 2 mps 742 mmHg 77%
19:00 +20°C° 0.6 mm 2 mps 742 mmHg 84%
20:00 +19°C° 0.6 mm 2 mps 742 mmHg 90%
21:00 +18°C° 0.1 mm 2 mps 742 mmHg 92%
22:00 +17°C° 0.1 mm 2 mps 742 mmHg 94%
23:00 +16°C° 0.1 mm 2 mps 742 mmHg 96%

5 August, Thursday

Time Temperature Precipitation Wind Pressure Humidity
00:00 +16°C° 0 mm 1 mps 742 mmHg 95%
01:00 +16°C° 0 mm 1 mps 742 mmHg 95%
02:00 +15°C° 0 mm 0 mps 742 mmHg 94%
03:00 +15°C° 0 mm 0 mps 742 mmHg 94%
04:00 +15°C° 0 mm 0 mps 742 mmHg 93%
05:00 +16°C° 0 mm 1 mps 742 mmHg 93%
06:00 +16°C° 0 mm 0 mps 742 mmHg 90%
07:00 +17°C° 0 mm 0 mps 742 mmHg 86%
08:00 +18°C° 0 mm 0 mps 742 mmHg 82%
09:00 +20°C° 0 mm 0 mps 742 mmHg 77%
10:00 +21°C° 0 mm 0 mps 742 mmHg 71%
11:00 +23°C° 0 mm 0 mps 742 mmHg 65%
12:00 +25°C° 0 mm 1 mps 742 mmHg 63%
13:00 +26°C° 0 mm 1 mps 741 mmHg 60%
14:00 +27°C° 0 mm 2 mps 741 mmHg 58%
15:00 +27°C° 0.1 mm 2 mps 740 mmHg 59%
16:00 +26°C° 0.1 mm 2 mps 740 mmHg 61%
17:00 +26°C° 0.1 mm 2 mps 739 mmHg 63%
18:00 +25°C° 0.4 mm 2 mps 739 mmHg 70%
19:00 +22°C° 0.4 mm 3 mps 739 mmHg 78%
20:00 +20°C° 0.4 mm 3 mps 738 mmHg 85%
21:00 +20°C° 2.1 mm 4 mps 738 mmHg 89%
22:00 +19°C° 2.1 mm 4 mps 738 mmHg 93%
23:00 +17°C° 2.1 mm 5 mps 737 mmHg 97%

6 August, Friday

Time Temperature Precipitation Wind Pressure Humidity
00:00 +18°C° 3.4 mm 4 mps 737 mmHg 97%
01:00 +18°C° 3.4 mm 3 mps 736 mmHg 97%
02:00 +18°C° 3.4 mm 3 mps 736 mmHg 97%
03:00 +18°C° 0.4 mm 3 mps 736 mmHg 98%
04:00 +18°C° 0.4 mm 4 mps 736 mmHg 98%
05:00 +18°C° 0.4 mm 4 mps 736 mmHg 98%
06:00 +18°C° 0.5 mm 4 mps 736 mmHg 98%
07:00 +18°C° 0.5 mm 4 mps 736 mmHg 98%
08:00 +18°C° 0.5 mm 3 mps 737 mmHg 97%
09:00 +18°C° 0.4 mm 3 mps 737 mmHg 95%
10:00 +19°C° 0.4 mm 3 mps 737 mmHg 92%
11:00 +19°C° 0.4 mm 3 mps 737 mmHg 90%
12:00 +19°C° 0.1 mm 3 mps 737 mmHg 88%
13:00 +20°C° 0.1 mm 3 mps 737 mmHg 87%
14:00 +20°C° 0.1 mm 3 mps 737 mmHg 86%
15:00 +19°C° 0.8 mm 3 mps 737 mmHg 89%
16:00 +19°C° 0.8 mm 3 mps 737 mmHg 92%
17:00 +18°C° 0.8 mm 3 mps 737 mmHg 95%
18:00 +18°C° 0.3 mm 3 mps 737 mmHg 95%
19:00 +17°C° 0.3 mm 3 mps 737 mmHg 96%
20:00 +17°C° 0.3 mm 3 mps 737 mmHg 96%
21:00 +17°C° 0 mm 3 mps 738 mmHg 96%
22:00 +17°C° 0 mm 3 mps 738 mmHg 96%
23:00 +17°C° 0 mm 3 mps 738 mmHg 96%
Show more

We Need Your Consent

Meteoprog and our Service Providers may store and access personal data such as cookies, device identifiers or other similar technologies on your device and process such data to personalise content and ads, as well as provide social media features and to analyse the traffic.

  • Store and/or access information on your device

    Cookies, device identifiers or other information can be stored or accessed on your device for the purposes indicated above.

  • Personalised ads and content, ad and content measurement, audience insights, and products development

    Ads and content can be personalised based on a profile. More data can be added to better personalise ads and content. Ad and content performance can be measured. Insights about the audience who saw the ads and content can be derived. Such data can be used to develop or improve user’s experience, systems and software.

By clicking ‘I Agree’ you will allow the use of indicated cookies, device identifiers, web beacons or other similar technologies. Your settings can be changed in the browser on your device.

For certain purposes, legitimate interests may be relied on, rather than consent. You can read more about this in our Privacy and Cookie Policy.